Weather History for Jacksonville, FL

Change the Weather History Date:

Tuesday, April 23, 2013

  Actual Average Record
Temperature  
Mean Temperature 62 °F 68 °F  
Max Temperature 70 °F 81 °F 92 °F (1970)
Min Temperature 53 °F 56 °F 37 °F (1993)
Degree Days  
Heating Degree Days 3 1  
Month to date heating degree days 41 49  
Since 1 July heating degree days 1238 1338  
Cooling Degree Days 0 5  
Month to date cooling degree days 89 77  
Year to date cooling degree days 181 160  
Growing Degree Days 12 (Base 50)    
Moisture  
Dew Point 54 °F    
Average Humidity 79    
Maximum Humidity 100    
Minimum Humidity 57    
Precipitation  
Precipitation 0.00 in 0.08 in 2.40 in (1991)
Month to date precipitation 2.83 2.15  
Year to date precipitation 11.62 12.59  
Snow  
Snow 0.00 in 0.00 in 0.00 in (2002)
Month to date snowfall 0.0 0.0  
Since 1 July snowfall 0.0 T  
Snow Depth 0.00 in    
Sea Level Pressure  
Sea Level Pressure 30.14 in    
Wind  
Wind Speed 7 mph (NE)    
Max Wind Speed 15 mph    
Max Gust Speed 18 mph    
Visibility 9 miles    
Events      
T = Trace of Precipitation, MM = Missing Value Source: NWS Daily Summary

Daily Weather History Graph

Daily Weather History Graph

Search for Another Location

Airport:

Trip Planner

Search our weather history database for the weather conditions in past years. The results will help you decide how hot, cold, wet, or windy it might be!

Date:

Astronomy

Apr. 23, 2013 Rise Set
Actual Time 6:50 AM EDT 7:59 PM EDT
Civil Twilight 6:25 AM EDT 8:24 PM EDT
Nautical Twilight 5:55 AM EDT 8:54 PM EDT
Astronomical Twilight 5:25 AM EDT 9:25 PM EDT
Moon 6:00 PM EDT 5:08 AM EDT
Length of Visible Light 13h 59m
Length of Day
13h 09m
Waxing Gibbous, 94% of the Moon is Illuminated
Apr 23
Waxing Gibbous
Apr 25
Full
May 2
Last Quarter
May 9
New
May 18
First Quarter

Hourly Weather History & Observations

Time (EDT) Temp. Dew Point Humidity Pressure Visibility Wind Dir Wind Speed Gust Speed Precip Events Conditions
12:56 AM 57.9 °F 55.0 °F 90% 30.14 in 10.0 mi NNW 5.8 mph - N/A   Clear
1:56 AM 55.9 °F 54.0 °F 93% 30.13 in 10.0 mi NNW 6.9 mph - N/A   Clear
2:56 AM 55.0 °F 53.1 °F 93% 30.11 in 8.0 mi North 6.9 mph - N/A   Partly Cloudy
3:56 AM 54.0 °F 53.1 °F 97% 30.09 in 8.0 mi Calm Calm - N/A   Partly Cloudy
4:26 AM 55.4 °F 53.6 °F 94% 30.09 in 9.0 mi North 6.9 mph - N/A   Mostly Cloudy
4:56 AM 55.0 °F 54.0 °F 96% 30.10 in 9.0 mi North 5.8 mph - N/A   Mostly Cloudy
5:24 AM 55.4 °F 53.6 °F 94% 30.10 in 8.0 mi North 5.8 mph - N/A   Scattered Clouds
5:56 AM 54.0 °F 53.1 °F 97% 30.11 in 8.0 mi North 4.6 mph - N/A   Partly Cloudy
6:56 AM 54.0 °F 52.0 °F 93% 30.12 in 7.0 mi North 4.6 mph - N/A   Scattered Clouds
7:56 AM 55.9 °F 54.0 °F 93% 30.14 in 8.0 mi North 6.9 mph - N/A   Scattered Clouds
8:16 AM 57.2 °F 55.4 °F 94% 30.15 in 9.0 mi North 4.6 mph - N/A   Mostly Cloudy
8:18 AM 57.2 °F 55.4 °F 94% 30.15 in 9.0 mi North 5.8 mph - N/A   Scattered Clouds
8:56 AM 61.0 °F 55.9 °F 83% 30.16 in 10.0 mi North 8.1 mph - N/A   Partly Cloudy
9:56 AM 64.9 °F 57.0 °F 75% 30.17 in 10.0 mi NE 9.2 mph - N/A   Scattered Clouds
10:56 AM 66.9 °F 55.0 °F 66% 30.18 in 10.0 mi East 11.5 mph - N/A   Scattered Clouds
11:56 AM 68.0 °F 54.0 °F 61% 30.18 in 10.0 mi NE 8.1 mph - N/A   Scattered Clouds
12:56 PM 69.1 °F 53.1 °F 57% 30.17 in 10.0 mi ENE 9.2 mph - N/A   Scattered Clouds
1:56 PM 69.1 °F 54.0 °F 58% 30.16 in 10.0 mi NE 11.5 mph - N/A   Partly Cloudy
2:56 PM 69.1 °F 54.0 °F 58% 30.15 in 10.0 mi NE 10.4 mph - N/A   Scattered Clouds
3:56 PM 69.1 °F 55.0 °F 61% 30.14 in 10.0 mi ENE 13.8 mph - N/A   Scattered Clouds
4:56 PM 69.1 °F 55.0 °F 61% 30.14 in 10.0 mi East 12.7 mph 17.3 mph N/A   Scattered Clouds
5:56 PM 66.9 °F 55.0 °F 66% 30.14 in 10.0 mi East 9.2 mph - N/A   Partly Cloudy
6:56 PM 64.0 °F 54.0 °F 70% 30.14 in 10.0 mi East 10.4 mph - N/A   Partly Cloudy
7:56 PM 61.0 °F 54.0 °F 78% 30.14 in 10.0 mi East 5.8 mph - N/A   Clear
8:56 PM 60.1 °F 54.0 °F 80% 30.15 in 10.0 mi ESE 4.6 mph - N/A   Clear
9:56 PM 57.0 °F 54.0 °F 89% 30.16 in 10.0 mi ENE 3.5 mph - N/A   Clear
10:56 PM 55.9 °F 53.1 °F 90% 30.17 in 10.0 mi Calm Calm - N/A   Clear
11:56 PM 55.0 °F 52.0 °F 89% 30.16 in 10.0 mi Calm Calm - N/A   Clear